Location: Eexterzandvoort
(53.0303°N, 6.7884°E)
Time: 05:41:25
(UTC+00:00)

ATLAS 3B R/B - Pass Details

Date: 19 May 2025
Orbit: 935 x 1258 km, 63.8° (Epoch: 14 June)

Event Time Altitude Azimuth Distance (km) Brightness Sun altitude
Exits shadow 21:30:07 16° 146° (SE) 2,666 4.1 -12.6°
Maximum altitude 21:33:51 23° 108° (ESE) 2,300 4.1 -12.8°
Drops below altitude 10° 21:39:37 10° 60° (ENE) 3,217 5.2 -13.2°
Sets 21:43:04 0° 48° (NE) 4,209 6.0 -13.4°
